CFG3CE EGKK-EDDF

Flight info

Callsign CFG3CE
Flight time 1h 11m
Altitude 35000
Route MIMFO Y312 DVR UL9 KONAN UL607 SPI T180 NIVNU T847 IMCOM IMCOM1D
Aircraft A320/M-SDE3FGHIRWY/LB1

Departure

Time 2026-04-14 14:36
Airport London Gatwick Airport (EGKK)

Arrival

Time 2026-04-14 15:48
Airport Frankfurt Main Airport (EDDF)
Time Latitude Longitude Altitude Speed Heading
2026-04-14 13:57 51.15859 -0.17526 205 ft 0 kts 347°
2026-04-14 14:26 51.15847 -0.17521 216 ft 2 kts 347°
2026-04-14 14:27 51.15832 -0.17516 213 ft 2 kts 347°
2026-04-14 14:27 51.15820 -0.17512 217 ft 2 kts 347°
2026-04-14 14:27 51.15804 -0.17506 207 ft 2 kts 348°
2026-04-14 14:27 51.15788 -0.17501 216 ft 2 kts 345°
2026-04-14 14:28 51.15773 -0.17490 217 ft 2 kts 300°
2026-04-14 14:28 51.15768 -0.17465 215 ft 2 kts 261°
2026-04-14 14:28 51.15771 -0.17440 217 ft 1 kts 257°
2026-04-14 14:28 51.15772 -0.17438 217 ft 0 kts 257°
2026-04-14 14:30 51.15772 -0.17439 217 ft 1 kts 259°
2026-04-14 14:30 51.15769 -0.17459 214 ft 3 kts 258°
2026-04-14 14:31 51.15754 -0.17496 209 ft 5 kts 218°
2026-04-14 14:31 51.15704 -0.17497 207 ft 9 kts 171°
2026-04-14 14:31 51.15629 -0.17471 212 ft 13 kts 168°
2026-04-14 14:31 51.15531 -0.17437 209 ft 16 kts 167°
2026-04-14 14:32 51.15421 -0.17399 209 ft 16 kts 168°
2026-04-14 14:32 51.15306 -0.17359 205 ft 16 kts 168°
2026-04-14 14:32 51.15245 -0.17318 208 ft 2 kts 142°
2026-04-14 14:32 51.15230 -0.17301 210 ft 6 kts 146°
2026-04-14 14:33 51.15189 -0.17251 209 ft 10 kts 131°
2026-04-14 14:33 51.15191 -0.17129 209 ft 13 kts 77°
2026-04-14 14:33 51.15211 -0.16989 205 ft 12 kts 77°
2026-04-14 14:33 51.15219 -0.16930 211 ft 0 kts 77°
2026-04-14 14:34 51.15222 -0.16910 209 ft 5 kts 77°
2026-04-14 14:34 51.15223 -0.16841 209 ft 8 kts 105°
2026-04-14 14:35 51.15165 -0.16796 209 ft 12 kts 182°
2026-04-14 14:35 51.15111 -0.16884 213 ft 0 kts 256°
2026-04-14 14:35 51.15110 -0.16890 211 ft 3 kts 256°
2026-04-14 14:35 51.15069 -0.17188 211 ft 64 kts 258°
2026-04-14 14:36 51.14924 -0.18254 208 ft 128 kts 258°
2026-04-14 14:36 51.14692 -0.19870 328 ft 165 kts 252°
2026-04-14 14:36 51.14450 -0.21654 1078 ft 166 kts 252°
2026-04-14 14:36 51.14212 -0.23432 1952 ft 164 kts 250°
2026-04-14 14:37 51.13958 -0.25313 2471 ft 180 kts 252°
2026-04-14 14:37 51.13703 -0.27359 2840 ft 204 kts 260°
2026-04-14 14:37 51.14001 -0.29725 3348 ft 234 kts 294°
2026-04-14 14:37 51.15141 -0.31654 3912 ft 247 kts 328°
2026-04-14 14:38 51.16807 -0.32270 4002 ft 252 kts
2026-04-14 14:38 51.18390 -0.31131 4638 ft 255 kts 44°
2026-04-14 14:38 51.19325 -0.28794 5471 ft 251 kts 80°
2026-04-14 14:38 51.19615 -0.26047 6304 ft 254 kts 84°
2026-04-14 14:39 51.19929 -0.23250 7103 ft 259 kts 82°
2026-04-14 14:39 51.20277 -0.20414 7938 ft 262 kts 82°
2026-04-14 14:39 51.20664 -0.17428 8366 ft 286 kts 81°
2026-04-14 14:39 51.21088 -0.14256 9059 ft 297 kts 80°
2026-04-14 14:40 51.21529 -0.11021 9934 ft 301 kts 79°
2026-04-14 14:40 51.21985 -0.07688 10501 ft 318 kts 80°
2026-04-14 14:40 51.22465 -0.04109 10789 ft 341 kts 80°
2026-04-14 14:40 51.22963 -0.00318 11290 ft 355 kts 80°
2026-04-14 14:41 51.23469 0.03563 11996 ft 361 kts 80°
2026-04-14 14:41 51.23973 0.07465 12734 ft 366 kts 79°
2026-04-14 14:41 51.24495 0.11531 13503 ft 371 kts 79°
2026-04-14 14:41 51.25016 0.15585 14201 ft 376 kts 79°
2026-04-14 14:42 51.25355 0.19734 14842 ft 379 kts 89°
2026-04-14 14:42 51.25222 0.23934 15339 ft 381 kts 98°
2026-04-14 14:42 51.24896 0.28146 15987 ft 385 kts 98°
2026-04-14 14:42 51.24571 0.32347 16630 ft 389 kts 98°
2026-04-14 14:43 51.24237 0.36668 17273 ft 393 kts 97°
2026-04-14 14:43 51.23904 0.41018 17921 ft 397 kts 97°
2026-04-14 14:43 51.23568 0.45414 18516 ft 401 kts 97°
2026-04-14 14:43 51.23229 0.49858 19055 ft 405 kts 96°
2026-04-14 14:44 51.22885 0.54348 19611 ft 409 kts 96°
2026-04-14 14:44 51.22538 0.58862 20178 ft 413 kts 96°
2026-04-14 14:44 51.22184 0.63431 20726 ft 417 kts 96°
2026-04-14 14:44 51.21821 0.68055 21270 ft 422 kts 96°
2026-04-14 14:45 51.21451 0.72726 21819 ft 427 kts 95°
2026-04-14 14:45 51.21074 0.77451 22349 ft 431 kts 95°
2026-04-14 14:45 51.20693 0.82223 22882 ft 436 kts 95°
2026-04-14 14:45 51.20309 0.87037 23470 ft 440 kts 95°
2026-04-14 14:46 51.19917 0.91907 23917 ft 444 kts 95°
2026-04-14 14:46 51.19519 0.96820 24338 ft 447 kts 95°
2026-04-14 14:46 51.19116 1.01748 24760 ft 450 kts 95°
2026-04-14 14:46 51.18705 1.06708 25172 ft 453 kts 94°
2026-04-14 14:47 51.18290 1.11706 25565 ft 455 kts 94°
2026-04-14 14:47 51.17874 1.16713 25952 ft 458 kts 94°
2026-04-14 14:47 51.17461 1.21697 26316 ft 461 kts 94°
2026-04-14 14:47 51.17039 1.26771 26699 ft 463 kts 94°
2026-04-14 14:48 51.16609 1.31873 27076 ft 466 kts 94°
2026-04-14 14:48 51.16183 1.36990 27440 ft 468 kts 93°
2026-04-14 14:48 51.15835 1.42174 27807 ft 470 kts 91°
2026-04-14 14:48 51.15574 1.47366 28155 ft 471 kts 89°
2026-04-14 14:49 51.15362 1.52584 28497 ft 473 kts 89°
2026-04-14 14:49 51.15164 1.57830 28836 ft 476 kts 89°
2026-04-14 14:49 51.15024 1.61393 29048 ft 478 kts 89°
2026-04-14 14:49 51.14803 1.66607 29366 ft 480 kts 89°
2026-04-14 14:50 51.14552 1.71931 29666 ft 483 kts 89°
2026-04-14 14:50 51.14282 1.77270 29970 ft 485 kts 90°
2026-04-14 14:50 51.14001 1.82639 30250 ft 488 kts 90°
2026-04-14 14:50 51.13716 1.88036 30489 ft 490 kts 90°
2026-04-14 14:51 51.13429 1.93434 30725 ft 491 kts 90°
2026-04-14 14:51 51.13140 1.98865 30962 ft 493 kts 89°
2026-04-14 14:51 51.12851 2.04315 31206 ft 493 kts 89°
2026-04-14 14:51 51.12564 2.09746 31534 ft 492 kts 89°
2026-04-14 14:52 51.12273 2.15179 31866 ft 491 kts 89°
2026-04-14 14:52 51.11980 2.20587 32206 ft 489 kts 89°
2026-04-14 14:52 51.11685 2.25968 32540 ft 488 kts 89°
2026-04-14 14:52 51.11387 2.31337 32875 ft 486 kts 89°
2026-04-14 14:53 51.11089 2.36692 33208 ft 485 kts 88°
2026-04-14 14:53 51.10792 2.42033 33547 ft 484 kts 88°
2026-04-14 14:53 51.10495 2.47355 33888 ft 483 kts 88°
2026-04-14 14:53 51.10194 2.52671 34218 ft 481 kts 88°
2026-04-14 14:54 51.09889 2.57974 34495 ft 481 kts 88°
2026-04-14 14:54 51.09560 2.63280 34746 ft 484 kts 91°
2026-04-14 14:54 51.08874 2.68552 34972 ft 491 kts 100°
2026-04-14 14:54 51.07931 2.73789 35151 ft 493 kts 100°
2026-04-14 14:55 51.06983 2.79020 35198 ft 492 kts 100°
2026-04-14 14:55 51.05083 2.89462 35195 ft 491 kts 100°
2026-04-14 14:56 51.02230 3.05016 35198 ft 491 kts 101°
2026-04-14 14:56 51.00311 3.15399 35191 ft 490 kts 101°
2026-04-14 14:57 50.98382 3.25782 35192 ft 490 kts 101°
2026-04-14 14:57 50.96452 3.36156 35194 ft 490 kts 101°
2026-04-14 14:58 50.94513 3.46515 35198 ft 490 kts 101°
2026-04-14 14:58 50.92561 3.56856 35198 ft 489 kts 102°
2026-04-14 14:59 50.90594 3.67177 35207 ft 489 kts 102°
2026-04-14 14:59 50.88617 3.77480 35212 ft 488 kts 102°
2026-04-14 15:00 50.86639 3.87687 35223 ft 488 kts 103°
2026-04-14 15:00 50.84643 3.97920 35229 ft 487 kts 103°
2026-04-14 15:01 50.82643 4.08153 35237 ft 486 kts 103°
2026-04-14 15:01 50.80639 4.18346 35240 ft 485 kts 103°
2026-04-14 15:02 50.78631 4.28497 35243 ft 484 kts 103°
2026-04-14 15:02 50.76616 4.38647 35245 ft 483 kts 104°
2026-04-14 15:03 50.74600 4.48750 35243 ft 482 kts 104°
2026-04-14 15:03 50.72566 4.58830 35239 ft 482 kts 104°
2026-04-14 15:04 50.70563 4.68912 35239 ft 481 kts 103°
2026-04-14 15:04 50.68627 4.79010 35231 ft 480 kts 103°
2026-04-14 15:05 50.66689 4.89082 35233 ft 480 kts 103°
2026-04-14 15:05 50.64697 4.99113 35243 ft 480 kts 104°
2026-04-14 15:06 50.62626 5.09123 35240 ft 480 kts 104°
2026-04-14 15:06 50.60533 5.19101 35242 ft 480 kts 104°
2026-04-14 15:07 50.58455 5.29062 35241 ft 479 kts 104°
2026-04-14 15:07 50.56397 5.38958 35243 ft 479 kts 104°
2026-04-14 15:08 50.54316 5.48910 35242 ft 479 kts 104°
2026-04-14 15:08 50.52219 5.58833 35084 ft 478 kts 104°
2026-04-14 15:09 50.51173 5.63777 34838 ft 477 kts 104°
2026-04-14 15:09 50.50176 5.68762 34605 ft 477 kts 102°
2026-04-14 15:09 50.49242 5.73746 34368 ft 476 kts 101°
2026-04-14 15:09 50.48338 5.78752 34120 ft 476 kts 101°
2026-04-14 15:10 50.47444 5.83756 33846 ft 476 kts 101°
2026-04-14 15:10 50.46538 5.88779 33571 ft 477 kts 101°
2026-04-14 15:10 50.45620 5.93757 33299 ft 477 kts 102°
2026-04-14 15:10 50.44682 5.98752 33025 ft 477 kts 102°
2026-04-14 15:11 50.43732 6.03737 32764 ft 477 kts 102°
2026-04-14 15:11 50.42775 6.08721 32503 ft 477 kts 102°
2026-04-14 15:11 50.41817 6.13691 32247 ft 476 kts 102°
2026-04-14 15:11 50.40874 6.18598 31989 ft 475 kts 102°
2026-04-14 15:12 50.39926 6.23528 31409 ft 470 kts 102°
2026-04-14 15:12 50.38986 6.28406 30775 ft 467 kts 102°
2026-04-14 15:12 50.38052 6.33242 30137 ft 463 kts 102°
2026-04-14 15:12 50.37123 6.38046 29481 ft 458 kts 103°
2026-04-14 15:13 50.36379 6.42839 28882 ft 448 kts 95°
2026-04-14 15:13 50.36041 6.47635 28299 ft 440 kts 91°
2026-04-14 15:13 50.35762 6.52376 27719 ft 435 kts 91°
2026-04-14 15:13 50.35471 6.57085 27144 ft 431 kts 92°
2026-04-14 15:14 50.35174 6.61745 26586 ft 427 kts 92°
2026-04-14 15:14 50.34877 6.66285 26019 ft 423 kts 92°
2026-04-14 15:14 50.34574 6.70852 25489 ft 420 kts 93°
2026-04-14 15:14 50.34277 6.75383 24955 ft 416 kts 93°
2026-04-14 15:15 50.33986 6.79918 24431 ft 413 kts 93°
2026-04-14 15:15 50.33623 6.84361 23921 ft 411 kts 99°
2026-04-14 15:15 50.32834 6.88644 23391 ft 410 kts 110°
2026-04-14 15:15 50.31669 6.92704 22896 ft 406 kts 114°
2026-04-14 15:16 50.30493 6.96631 22440 ft 401 kts 114°
2026-04-14 15:16 50.29319 7.00552 21987 ft 397 kts 114°
2026-04-14 15:16 50.28155 7.04456 21512 ft 393 kts 114°
2026-04-14 15:16 50.27010 7.08308 21046 ft 390 kts 114°
2026-04-14 15:17 50.26094 7.11385 20666 ft 389 kts 114°
2026-04-14 15:17 50.24955 7.15204 20161 ft 387 kts 114°
2026-04-14 15:17 50.23819 7.19011 19650 ft 385 kts 114°
2026-04-14 15:17 50.22687 7.22788 19271 ft 381 kts 114°
2026-04-14 15:18 50.21564 7.26515 19168 ft 379 kts 114°
2026-04-14 15:18 50.20437 7.30242 19191 ft 379 kts 114°
2026-04-14 15:18 50.19329 7.33977 19194 ft 379 kts 112°
2026-04-14 15:18 50.18329 7.37774 19198 ft 379 kts 110°
2026-04-14 15:19 50.17412 7.41623 19201 ft 379 kts 109°
2026-04-14 15:19 50.16531 7.45500 19194 ft 379 kts 108°
2026-04-14 15:19 50.15655 7.49383 19207 ft 379 kts 108°
2026-04-14 15:19 50.14773 7.53233 19203 ft 379 kts 109°
2026-04-14 15:20 50.13867 7.57093 19203 ft 379 kts 109°
2026-04-14 15:20 50.12947 7.60947 19202 ft 379 kts 109°
2026-04-14 15:20 50.12035 7.64730 19199 ft 379 kts 109°
2026-04-14 15:20 50.11103 7.68591 19199 ft 379 kts 109°
2026-04-14 15:21 50.10245 7.72478 19195 ft 379 kts 107°
2026-04-14 15:21 50.09466 7.76397 19201 ft 379 kts 105°
2026-04-14 15:21 50.08730 7.80324 19193 ft 378 kts 104°
2026-04-14 15:21 50.08325 7.84355 19192 ft 376 kts 90°
2026-04-14 15:22 50.08567 7.88387 19190 ft 371 kts 76°
2026-04-14 15:22 50.09344 7.92116 19192 ft 353 kts 67°
2026-04-14 15:22 50.10205 7.95616 19196 ft 339 kts 68°
2026-04-14 15:22 50.11033 7.99007 19195 ft 335 kts 68°
2026-04-14 15:23 50.11857 8.02394 19197 ft 334 kts 68°
2026-04-14 15:23 50.12587 8.05390 19196 ft 333 kts 68°
2026-04-14 15:23 50.13382 8.08661 19192 ft 326 kts 68°
2026-04-14 15:23 50.14172 8.11913 19080 ft 315 kts 68°
2026-04-14 15:24 50.14935 8.15067 18958 ft 306 kts 68°
2026-04-14 15:24 50.15675 8.18121 18841 ft 297 kts 68°
2026-04-14 15:24 50.16397 8.21102 18607 ft 293 kts 68°
2026-04-14 15:24 50.17114 8.24067 18315 ft 290 kts 68°
2026-04-14 15:25 50.17822 8.27001 17978 ft 289 kts 68°
2026-04-14 15:25 50.18530 8.29938 17659 ft 288 kts 68°
2026-04-14 15:25 50.19210 8.32857 17339 ft 287 kts 73°
2026-04-14 15:25 50.19328 8.35955 17016 ft 287 kts 100°
2026-04-14 15:26 50.18566 8.38810 16690 ft 287 kts 127°
2026-04-14 15:26 50.17110 8.40827 16368 ft 285 kts 153°
2026-04-14 15:26 50.15271 8.41984 16047 ft 285 kts 162°
2026-04-14 15:26 50.13338 8.42435 15746 ft 280 kts 188°
2026-04-14 15:27 50.11520 8.41497 15449 ft 275 kts 215°
2026-04-14 15:27 50.10195 8.39424 15157 ft 270 kts 242°
2026-04-14 15:27 50.09460 8.36754 14852 ft 268 kts 251°
2026-04-14 15:27 50.08804 8.34031 14562 ft 268 kts 251°
2026-04-14 15:28 50.08264 8.31269 14281 ft 266 kts 266°
2026-04-14 15:28 50.08499 8.28466 14007 ft 263 kts 294°
2026-04-14 15:28 50.09572 8.26203 13676 ft 261 kts 323°
2026-04-14 15:28 50.11188 8.24950 13321 ft 262 kts 341°
2026-04-14 15:29 50.12901 8.24133 12991 ft 262 kts 343°
2026-04-14 15:29 50.14659 8.23368 12673 ft 262 kts 347°
2026-04-14 15:29 50.16450 8.23348 12375 ft 261 kts 15°
2026-04-14 15:29 50.18016 8.24664 12058 ft 261 kts 44°
2026-04-14 15:30 50.19002 8.27021 11722 ft 262 kts 69°
2026-04-14 15:30 50.19583 8.29723 11365 ft 263 kts 73°
2026-04-14 15:30 50.19885 8.32519 11047 ft 262 kts 96°
2026-04-14 15:30 50.19341 8.35168 10720 ft 257 kts 126°
2026-04-14 15:31 50.18048 8.37022 10402 ft 252 kts 155°
2026-04-14 15:31 50.16428 8.38048 10080 ft 251 kts 163°
2026-04-14 15:31 50.14778 8.38910 9749 ft 250 kts 163°
2026-04-14 15:31 50.13131 8.39739 9382 ft 250 kts 163°
2026-04-14 15:32 50.11466 8.40556 9005 ft 249 kts 163°
2026-04-14 15:32 50.09804 8.41350 8628 ft 249 kts 163°
2026-04-14 15:32 50.08141 8.42124 8249 ft 249 kts 163°
2026-04-14 15:32 50.06469 8.42883 7880 ft 249 kts 163°
2026-04-14 15:33 50.04799 8.43619 7514 ft 250 kts 163°
2026-04-14 15:33 50.03133 8.44334 7172 ft 249 kts 163°
2026-04-14 15:33 50.01484 8.45029 6847 ft 248 kts 163°
2026-04-14 15:33 49.99822 8.45717 6504 ft 247 kts 163°
2026-04-14 15:34 49.98164 8.46400 6141 ft 246 kts 164°
2026-04-14 15:34 49.96512 8.47081 5784 ft 245 kts 163°
2026-04-14 15:34 49.94869 8.47755 5435 ft 244 kts 164°
2026-04-14 15:34 49.93242 8.48423 5100 ft 242 kts 163°
2026-04-14 15:35 49.91669 8.49075 5007 ft 240 kts 164°
2026-04-14 15:35 49.90046 8.49750 5009 ft 242 kts 163°
2026-04-14 15:35 49.88415 8.50424 5012 ft 243 kts 164°
2026-04-14 15:35 49.86775 8.51042 5007 ft 243 kts 173°
2026-04-14 15:36 49.85124 8.50679 5008 ft 243 kts 206°
2026-04-14 15:36 49.83833 8.49037 5011 ft 241 kts 238°
2026-04-14 15:36 49.83126 8.46707 5012 ft 240 kts 252°
2026-04-14 15:36 49.82576 8.44268 5014 ft 240 kts 253°
2026-04-14 15:37 49.82225 8.42641 5007 ft 240 kts 253°
2026-04-14 15:37 49.81701 8.40183 5010 ft 240 kts 254°
2026-04-14 15:37 49.81179 8.37729 5011 ft 240 kts 253°
2026-04-14 15:37 49.80657 8.35276 5012 ft 240 kts 253°
2026-04-14 15:38 49.80137 8.32831 5004 ft 239 kts 254°
2026-04-14 15:38 49.79693 8.30411 5010 ft 237 kts 266°
2026-04-14 15:38 49.79797 8.27887 5015 ft 235 kts 282°
2026-04-14 15:38 49.80093 8.25405 5009 ft 234 kts 283°
2026-04-14 15:39 49.80415 8.22927 5006 ft 235 kts 284°
2026-04-14 15:39 49.80740 8.20455 5013 ft 235 kts 283°
2026-04-14 15:39 49.81067 8.17977 5015 ft 235 kts 284°
2026-04-14 15:39 49.81547 8.15583 5006 ft 231 kts 304°
2026-04-14 15:40 49.82688 8.13917 5014 ft 227 kts 335°
2026-04-14 15:40 49.84154 8.13015 5015 ft 227 kts 342°
2026-04-14 15:40 49.85639 8.12268 5007 ft 227 kts 343°
2026-04-14 15:40 49.87143 8.11530 5012 ft 227 kts 343°
2026-04-14 15:41 49.88668 8.10785 5011 ft 227 kts 345°
2026-04-14 15:41 49.90202 8.10606 5013 ft 225 kts 13°
2026-04-14 15:41 49.91575 8.11718 5014 ft 226 kts 39°
2026-04-14 15:41 49.92739 8.13366 5012 ft 226 kts 43°
2026-04-14 15:42 49.93828 8.15021 5005 ft 212 kts 44°
2026-04-14 15:42 49.94838 8.16577 5002 ft 198 kts 44°
2026-04-14 15:42 49.95781 8.18037 4995 ft 185 kts 44°
2026-04-14 15:42 49.96455 8.19718 4733 ft 185 kts 70°
2026-04-14 15:43 49.96892 8.21608 4422 ft 188 kts 66°
2026-04-14 15:43 49.97374 8.23511 4132 ft 191 kts 67°
2026-04-14 15:43 49.97844 8.25424 3849 ft 186 kts 68°
2026-04-14 15:43 49.98294 8.27270 3578 ft 180 kts 67°
2026-04-14 15:44 49.98729 8.29065 3371 ft 177 kts 68°
2026-04-14 15:44 49.99163 8.30855 3083 ft 176 kts 68°
2026-04-14 15:44 49.99592 8.32629 2814 ft 175 kts 67°
2026-04-14 15:44 50.00017 8.34386 2557 ft 172 kts 68°
2026-04-14 15:45 50.00434 8.36114 2304 ft 169 kts 68°
2026-04-14 15:45 50.00838 8.37792 2083 ft 158 kts 67°
2026-04-14 15:45 50.01212 8.39328 1828 ft 149 kts 68°
2026-04-14 15:45 50.01570 8.40781 1581 ft 142 kts 66°
2026-04-14 15:46 50.01910 8.42209 1362 ft 138 kts 68°
2026-04-14 15:46 50.02251 8.43614 1150 ft 139 kts 68°
2026-04-14 15:46 50.02578 8.45022 949 ft 138 kts 67°
2026-04-14 15:46 50.02932 8.46448 803 ft 142 kts 67°
2026-04-14 15:47 50.03267 8.47876 618 ft 138 kts 68°
2026-04-14 15:47 50.03598 8.49266 409 ft 134 kts 67°
2026-04-14 15:47 50.03914 8.50570 323 ft 118 kts 69°
2026-04-14 15:47 50.04146 8.51554 332 ft 73 kts 69°
2026-04-14 15:48 50.04292 8.52156 338 ft 53 kts 69°
2026-04-14 15:48 50.04381 8.52546 350 ft 27 kts 76°
2026-04-14 15:48 50.04390 8.52837 349 ft 24 kts 96°
2026-04-14 15:48 50.04366 8.53051 357 ft 20 kts 100°
2026-04-14 15:49 50.04349 8.53254 363 ft 17 kts 88°
2026-04-14 15:49 50.04373 8.53408 373 ft 13 kts 67°
2026-04-14 15:49 50.04396 8.53529 375 ft 11 kts 83°
2026-04-14 15:49 50.04404 8.53655 375 ft 12 kts 84°
2026-04-14 15:50 50.04414 8.53802 375 ft 15 kts 84°
2026-04-14 15:50 50.04426 8.53978 375 ft 18 kts 84°
2026-04-14 15:50 50.04439 8.54167 375 ft 16 kts 84°
2026-04-14 15:50 50.04451 8.54356 373 ft 19 kts 86°
2026-04-14 15:51 50.04438 8.54555 368 ft 17 kts 110°
2026-04-14 15:51 50.04367 8.54713 365 ft 21 kts 139°
2026-04-14 15:51 50.04244 8.54811 354 ft 20 kts 160°
2026-04-14 15:51 50.04136 8.54871 352 ft 16 kts 159°
2026-04-14 15:52 50.04047 8.54922 353 ft 11 kts 159°
2026-04-14 15:52 50.04016 8.54995 356 ft 7 kts 89°
2026-04-14 15:52 50.04029 8.55064 360 ft 8 kts 71°
2026-04-14 15:52 50.04052 8.55157 353 ft 11 kts 70°
2026-04-14 15:53 50.04083 8.55286 358 ft 15 kts 70°
2026-04-14 15:53 50.04124 8.55456 351 ft 19 kts 70°
2026-04-14 15:53 50.04171 8.55658 360 ft 21 kts 69°
2026-04-14 15:53 50.04220 8.55860 355 ft 19 kts 70°
2026-04-14 15:54 50.04318 8.56271 362 ft 22 kts 70°
2026-04-14 15:54 50.04366 8.56474 361 ft 18 kts 70°
2026-04-14 15:54 50.04409 8.56645 362 ft 17 kts 68°
2026-04-14 15:55 50.04442 8.56790 365 ft 14 kts 69°
2026-04-14 15:55 50.04478 8.56941 361 ft 16 kts 70°
2026-04-14 15:55 50.04516 8.57100 360 ft 14 kts 69°
2026-04-14 15:55 50.04550 8.57243 361 ft 13 kts 69°
2026-04-14 15:56 50.04585 8.57387 361 ft 15 kts 69°
2026-04-14 15:56 50.04622 8.57542 360 ft 14 kts 69°
2026-04-14 15:56 50.04657 8.57690 359 ft 10 kts 70°
2026-04-14 15:56 50.04677 8.57772 365 ft 6 kts 70°
2026-04-14 15:57 50.04681 8.57792 360 ft 1 kts 70°
2026-04-14 15:57 50.04683 8.57798 360 ft 0 kts 70°
2026-04-14 15:57 50.04688 8.57821 361 ft 6 kts 70°
2026-04-14 15:58 50.04715 8.57899 359 ft 11 kts 47°
2026-04-14 15:58 50.04792 8.57912 363 ft 11 kts 340°
2026-04-14 15:58 50.04850 8.57831 358 ft 12 kts 290°
2026-04-14 15:58 50.04881 8.57716 359 ft 11 kts 293°
2026-04-14 15:59 50.04912 8.57604 359 ft 12 kts 294°
2026-04-14 15:59 50.04935 8.57524 358 ft 1 kts 284°
2026-04-14 15:59 50.04935 8.57515 361 ft 0 kts 266°
2026-04-14 15:59 50.04932 8.57504 359 ft 4 kts 250°
2026-04-14 16:00 50.04909 8.57471 356 ft 4 kts 218°
2026-04-14 16:00 50.04890 8.57448 358 ft 3 kts 217°
2026-04-14 16:00 50.04883 8.57440 358 ft 0 kts 217°